Saint Bonnet de Bellac- Haute Vienne - France
Donnes mto: jeudi, 15/12/2011
Date Horaire Temp. E. Hum. E. P.atmo. Pluie Vent Direction Direction Ensoleilleme Solaire P. de rose Temp au vent Rafales
15/12/2011 00:00 6,8 C 92 % 1011,1 hPa 0,0 mm 7,6 km/h (2 Bft) SO 225 0 min 0 W/m 5,6 C 5,3 C 11,2 km/h (2 Bft)
15/12/2011 00:05 6,8 C 92 % 1011,1 hPa 0,0 mm 16,6 km/h (3 Bft) S-SO 202 0 min 0 W/m 5,6 C 3,7 C 16,6 km/h (3 Bft)
15/12/2011 00:10 6,8 C 92 % 1011,2 hPa 0,0 mm 10,1 km/h (2 Bft) SO 225 0 min 0 W/m 5,6 C 4,8 C 13,3 km/h (3 Bft)
15/12/2011 00:15 6,8 C 92 % 1011,2 hPa 0,0 mm 5,8 km/h (2 Bft) SO 225 0 min 0 W/m 5,6 C 5,9 C 9,4 km/h (2 Bft)
15/12/2011 00:20 6,8 C 92 % 1011,2 hPa 0,0 mm 10,1 km/h (2 Bft) SO 225 0 min 0 W/m 5,6 C 4,8 C 11,9 km/h (2 Bft)
15/12/2011 00:25 6,8 C 92 % 1011,3 hPa 0,0 mm 1,8 km/h (1 Bft) S-SO 202 0 min 0 W/m 5,6 C 6,8 C 4,7 km/h (1 Bft)
15/12/2011 00:30 6,8 C 92 % 1011,3 hPa 0,0 mm 3,6 km/h (1 Bft) SO 225 0 min 0 W/m 5,6 C 6,8 C 3,6 km/h (1 Bft)
15/12/2011 00:35 6,8 C 92 % 1011,5 hPa 0,1 mm 5,8 km/h (2 Bft) O-SO 247 0 min 0 W/m 5,6 C 5,9 C 13,3 km/h (3 Bft)
15/12/2011 00:40 6,8 C 92 % 1011,4 hPa 0,1 mm 7,6 km/h (2 Bft) SO 225 0 min 0 W/m 5,6 C 5,3 C 8,6 km/h (2 Bft)
15/12/2011 00:45 6,8 C 92 % 1011,5 hPa 0,1 mm 10,1 km/h (2 Bft) S 180 0 min 0 W/m 5,6 C 4,8 C 11,5 km/h (2 Bft)
15/12/2011 00:50 6,8 C 92 % 1011,3 hPa 0,0 mm 5,4 km/h (2 Bft) SO 225 0 min 0 W/m 5,6 C 6,0 C 10,4 km/h (2 Bft)
15/12/2011 00:55 6,8 C 92 % 1011,5 hPa 0,1 mm 3,2 km/h (1 Bft) S-SO 202 0 min 0 W/m 5,6 C 6,8 C 8,3 km/h (2 Bft)
15/12/2011 01:00 6,6 C 92 % 1011,4 hPa 0,2 mm 7,9 km/h (2 Bft) O-SO 247 0 min 0 W/m 5,4 C 5,0 C 10,1 km/h (2 Bft)
15/12/2011 01:05 6,5 C 91 % 1010,9 hPa 0,1 mm 10,4 km/h (2 Bft) SO 225 0 min 0 W/m 5,1 C 4,4 C 16,2 km/h (3 Bft)
15/12/2011 01:10 6,3 C 90 % 1010,7 hPa 0,0 mm 11,2 km/h (2 Bft) SO 225 0 min 0 W/m 4,8 C 4,0 C 11,2 km/h (2 Bft)
15/12/2011 01:15 6,0 C 90 % 1010,7 hPa 0,0 mm 8,6 km/h (2 Bft) SO 225 0 min 0 W/m 4,5 C 4,2 C 8,6 km/h (2 Bft)
15/12/2011 01:20 5,8 C 90 % 1010,7 hPa 0,0 mm 7,2 km/h (2 Bft) SO 225 0 min 0 W/m 4,3 C 4,3 C 10,8 km/h (2 Bft)
15/12/2011 01:25 5,8 C 90 % 1010,7 hPa 0,0 mm 8,6 km/h (2 Bft) S-SO 202 0 min 0 W/m 4,3 C 3,9 C 13,0 km/h (3 Bft)
15/12/2011 01:30 5,7 C 90 % 1010,9 hPa 0,0 mm 10,1 km/h (2 Bft) SO 225 0 min 0 W/m 4,2 C 3,5 C 10,1 km/h (2 Bft)
15/12/2011 01:35 5,6 C 91 % 1010,8 hPa 0,0 mm 8,3 km/h (2 Bft) S-SO 202 0 min 0 W/m 4,2 C 3,8 C 11,9 km/h (2 Bft)
15/12/2011 01:40 5,6 C 91 % 1010,7 hPa 0,0 mm 11,5 km/h (2 Bft) SO 225 0 min 0 W/m 4,2 C 3,1 C 14,8 km/h (3 Bft)
15/12/2011 01:45 5,7 C 92 % 1010,9 hPa 0,0 mm 10,8 km/h (2 Bft) O-SO 247 0 min 0 W/m 4,5 C 3,3 C 16,9 km/h (3 Bft)
15/12/2011 01:50 5,8 C 92 % 1010,9 hPa 0,0 mm 10,4 km/h (2 Bft) S-SO 202 0 min 0 W/m 4,6 C 3,5 C 19,4 km/h (3 Bft)
15/12/2011 01:55 5,8 C 92 % 1011,0 hPa 0,0 mm 9,4 km/h (2 Bft) SO 225 0 min 0 W/m 4,6 C 3,7 C 14,4 km/h (3 Bft)
15/12/2011 02:02 5,9 C 92 % 1011,1 hPa 0,0 mm 9,0 km/h (2 Bft) S-SO 202 0 min 0 W/m 4,7 C 4,0 C 15,1 km/h (3 Bft)
15/12/2011 02:05 5,9 C 91 % 1011,0 hPa 0,0 mm 9,4 km/h (2 Bft) S-SO 202 0 min 0 W/m 4,5 C 3,9 C 14,4 km/h (3 Bft)
15/12/2011 02:10 6,0 C 91 % 1011,1 hPa 0,0 mm 9,7 km/h (2 Bft) SO 225 0 min 0 W/m 4,6 C 3,9 C 10,4 km/h (2 Bft)
15/12/2011 02:15 6,1 C 91 % 1011,2 hPa 0,0 mm 7,6 km/h (2 Bft) SO 225 0 min 0 W/m 4,7 C 4,5 C 7,6 km/h (2 Bft)
15/12/2011 02:20 6,1 C 91 % 1011,1 hPa 0,0 mm 8,6 km/h (2 Bft) SO 225 0 min 0 W/m 4,7 C 4,3 C 12,2 km/h (2 Bft)
15/12/2011 02:25 6,1 C 91 % 1011,1 hPa 0,0 mm 6,5 km/h (2 Bft) S-SO 202 0 min 0 W/m 4,7 C 4,8 C 8,3 km/h (2 Bft)
15/12/2011 02:30 6,1 C 91 % 1011,1 hPa 0,0 mm 7,6 km/h (2 Bft) SO 225 0 min 0 W/m 4,7 C 4,5 C 10,1 km/h (2 Bft)
15/12/2011 02:35 6,0 C 91 % 1011,1 hPa 0,0 mm 6,1 km/h (2 Bft) SO 225 0 min 0 W/m 4,6 C 4,8 C 9,7 km/h (2 Bft)
15/12/2011 02:40 5,9 C 91 % 1011,1 hPa 0,0 mm 9,0 km/h (2 Bft) SO 225 0 min 0 W/m 4,5 C 4,0 C 13,0 km/h (3 Bft)
15/12/2011 02:45 5,9 C 91 % 1011,1 hPa 0,0 mm 8,3 km/h (2 Bft) SO 225 0 min 0 W/m 4,5 C 4,1 C 9,0 km/h (2 Bft)
15/12/2011 02:50 5,9 C 92 % 1011,2 hPa 0,0 mm 6,1 km/h (2 Bft) SO 225 0 min 0 W/m 4,7 C 4,7 C 11,5 km/h (2 Bft)
15/12/2011 02:55 5,9 C 92 % 1011,3 hPa 0,0 mm 7,2 km/h (2 Bft) S-SO 202 0 min 0 W/m 4,7 C 4,4 C 11,2 km/h (2 Bft)
15/12/2011 03:00 5,9 C 93 % 1011,4 hPa 0,0 mm 7,9 km/h (2 Bft) SO 225 0 min 0 W/m 4,9 C 4,2 C 15,8 km/h (3 Bft)
15/12/2011 03:05 6,1 C 93 % 1011,2 hPa 0,0 mm 8,3 km/h (2 Bft) SO 225 0 min 0 W/m 5,1 C 4,4 C 11,9 km/h (2 Bft)
15/12/2011 03:10 6,2 C 93 % 1011,1 hPa 0,0 mm 9,7 km/h (2 Bft) S-SO 202 0 min 0 W/m 5,2 C 4,2 C 14,4 km/h (3 Bft)
15/12/2011 03:15 6,3 C 93 % 1011,1 hPa 0,0 mm 13,3 km/h (3 Bft) O-SO 247 0 min 0 W/m 5,3 C 3,6 C 19,1 km/h (3 Bft)
15/12/2011 03:20 6,3 C 92 % 1011,1 hPa 0,0 mm 9,4 km/h (2 Bft) S-SO 202 0 min 0 W/m 5,1 C 4,3 C 12,6 km/h (3 Bft)
15/12/2011 03:25 6,4 C 92 % 1011,1 hPa 0,0 mm 14,4 km/h (3 Bft) S-SO 202 0 min 0 W/m 5,2 C 3,6 C 15,8 km/h (3 Bft)
15/12/2011 03:30 6,4 C 92 % 1011,1 hPa 0,0 mm 10,1 km/h (2 Bft) S-SO 202 0 min 0 W/m 5,2 C 4,3 C 15,5 km/h (3 Bft)
15/12/2011 03:35 6,5 C 91 % 1011,1 hPa 0,0 mm 11,5 km/h (2 Bft) S-SO 202 0 min 0 W/m 5,1 C 4,2 C 13,7 km/h (3 Bft)
15/12/2011 03:40 6,5 C 91 % 1011,4 hPa 0,0 mm 11,2 km/h (2 Bft) S-SO 202 0 min 0 W/m 5,1 C 4,2 C 14,0 km/h (3 Bft)
15/12/2011 03:45 6,5 C 91 % 1011,5 hPa 0,2 mm 6,5 km/h (2 Bft) SO 225 0 min 0 W/m 5,1 C 5,3 C 7,6 km/h (2 Bft)
15/12/2011 03:50 6,4 C 91 % 1011,4 hPa 0,0 mm 10,4 km/h (2 Bft) SO 225 0 min 0 W/m 5,0 C 4,3 C 25,6 km/h (4 Bft)
15/12/2011 03:55 6,3 C 91 % 1011,6 hPa 0,0 mm 13,3 km/h (3 Bft) SO 225 0 min 0 W/m 4,9 C 3,6 C 18,4 km/h (3 Bft)
15/12/2011 04:00 6,3 C 91 % 1011,6 hPa 0,0 mm 11,9 km/h (2 Bft) SO 225 0 min 0 W/m 4,9 C 3,8 C 17,3 km/h (3 Bft)
15/12/2011 04:05 6,3 C 91 % 1011,7 hPa 0,0 mm 14,8 km/h (3 Bft) SO 225 0 min 0 W/m 4,9 C 3,4 C 19,8 km/h (3 Bft)
15/12/2011 04:10 6,4 C 91 % 1011,7 hPa 0,0 mm 10,8 km/h (2 Bft) SO 225 0 min 0 W/m 5,0 C 4,2 C 15,8 km/h (3 Bft)
15/12/2011 04:15 6,4 C 91 % 1011,8 hPa 0,0 mm 10,4 km/h (2 Bft) SO 225 0 min 0 W/m 5,0 C 4,3 C 12,2 km/h (2 Bft)
15/12/2011 04:20 6,4 C 91 % 1011,8 hPa 0,0 mm 5,4 km/h (2 Bft) SO 225 0 min 0 W/m 5,0 C 5,5 C 5,4 km/h (2 Bft)
15/12/2011 04:25 6,4 C 91 % 1011,7 hPa 0,0 mm 6,8 km/h (2 Bft) SO 225 0 min 0 W/m 5,0 C 5,1 C 14,4 km/h (3 Bft)
15/12/2011 04:30 6,4 C 92 % 1011,7 hPa 0,0 mm 12,6 km/h (3 Bft) SO 225 0 min 0 W/m 5,2 C 3,8 C 20,9 km/h (4 Bft)
15/12/2011 04:35 6,4 C 91 % 1011,7 hPa 0,1 mm 8,3 km/h (2 Bft) S-SO 202 0 min 0 W/m 5,0 C 4,7 C 10,4 km/h (2 Bft)
15/12/2011 04:40 6,4 C 91 % 1011,9 hPa 0,0 mm 11,2 km/h (2 Bft) SO 225 0 min 0 W/m 5,0 C 4,1 C 15,8 km/h (3 Bft)
15/12/2011 04:45 6,4 C 91 % 1012,0 hPa 0,0 mm 9,4 km/h (2 Bft) SO 225 0 min 0 W/m 5,0 C 4,5 C 11,9 km/h (2 Bft)
15/12/2011 04:50 6,5 C 91 % 1012,2 hPa 0,0 mm 5,0 km/h (1 Bft) SO 225 0 min 0 W/m 5,1 C 5,8 C 5,0 km/h (1 Bft)
15/12/2011 04:55 6,4 C 91 % 1011,9 hPa 0,0 mm 8,3 km/h (2 Bft) O 270 0 min 0 W/m 5,0 C 4,7 C 21,2 km/h (4 Bft)
15/12/2011 05:00 6,4 C 90 % 1011,8 hPa 0,0 mm 7,2 km/h (2 Bft) SO 225 0 min 0 W/m 4,9 C 5,0 C 11,2 km/h (2 Bft)
15/12/2011 05:05 6,3 C 89 % 1011,9 hPa 0,0 mm 12,2 km/h (2 Bft) O-SO 247 0 min 0 W/m 4,6 C 3,8 C 13,3 km/h (3 Bft)
15/12/2011 05:10 6,2 C 89 % 1011,9 hPa 0,0 mm 8,3 km/h (2 Bft) S-SO 202 0 min 0 W/m 4,5 C 4,5 C 15,5 km/h (3 Bft)
15/12/2011 05:15 6,0 C 89 % 1012,1 hPa 0,0 mm 11,5 km/h (2 Bft) SO 225 0 min 0 W/m 4,3 C 3,6 C 15,1 km/h (3 Bft)
15/12/2011 05:20 5,8 C 89 % 1012,2 hPa 0,0 mm 5,0 km/h (1 Bft) SO 225 0 min 0 W/m 4,1 C 5,0 C 5,0 km/h (1 Bft)
15/12/2011 05:25 5,8 C 89 % 1012,2 hPa 0,0 mm 10,8 km/h (2 Bft) SO 225 0 min 0 W/m 4,1 C 3,5 C 10,8 km/h (2 Bft)
15/12/2011 05:30 5,7 C 90 % 1012,4 hPa 0,0 mm 5,8 km/h (2 Bft) SO 225 0 min 0 W/m 4,2 C 4,6 C 6,8 km/h (2 Bft)
15/12/2011 05:35 5,6 C 90 % 1012,5 hPa 0,0 mm 9,4 km/h (2 Bft) SO 225 0 min 0 W/m 4,1 C 3,5 C 12,6 km/h (3 Bft)
15/12/2011 05:40 5,7 C 90 % 1012,8 hPa 0,0 mm 7,9 km/h (2 Bft) SO 225 0 min 0 W/m 4,2 C 4,0 C 7,9 km/h (2 Bft)
15/12/2011 05:45 5,7 C 90 % 1013,0 hPa 0,1 mm 4,7 km/h (1 Bft) O 270 0 min 0 W/m 4,2 C 5,0 C 7,9 km/h (2 Bft)
15/12/2011 05:50 5,6 C 90 % 1013,0 hPa 0,0 mm 10,1 km/h (2 Bft) S-SO 202 0 min 0 W/m 4,1 C 3,4 C 19,4 km/h (3 Bft)
15/12/2011 05:55 5,6 C 90 % 1013,0 hPa 0,0 mm 4,0 km/h (1 Bft) O-SO 247 0 min 0 W/m 4,1 C 5,6 C 7,6 km/h (2 Bft)
15/12/2011 06:00 5,5 C 89 % 1012,9 hPa 0,1 mm 15,8 km/h (3 Bft) SO 225 0 min 0 W/m 3,8 C 2,2 C 27,4 km/h (5 Bft)
15/12/2011 06:05 5,5 C 89 % 1012,8 hPa 0,1 mm 7,9 km/h (2 Bft) O 270 0 min 0 W/m 3,8 C 3,7 C 14,8 km/h (3 Bft)
15/12/2011 06:10 5,4 C 89 % 1012,8 hPa 0,0 mm 10,4 km/h (2 Bft) O 270 0 min 0 W/m 3,7 C 3,1 C 12,6 km/h (3 Bft)
15/12/2011 06:15 5,3 C 88 % 1012,9 hPa 0,0 mm 10,1 km/h (2 Bft) S 180 0 min 0 W/m 3,5 C 3,0 C 25,9 km/h (4 Bft)
15/12/2011 06:20 5,2 C 88 % 1012,9 hPa 0,0 mm 12,6 km/h (3 Bft) O-SO 247 0 min 0 W/m 3,4 C 2,4 C 18,0 km/h (3 Bft)
15/12/2011 06:25 5,1 C 88 % 1012,9 hPa 0,0 mm 8,3 km/h (2 Bft) O 270 0 min 0 W/m 3,3 C 3,2 C 14,8 km/h (3 Bft)
15/12/2011 06:30 5,1 C 88 % 1012,8 hPa 0,0 mm 6,5 km/h (2 Bft) S-SO 202 0 min 0 W/m 3,3 C 3,7 C 6,5 km/h (2 Bft)
15/12/2011 06:35 4,9 C 89 % 1012,8 hPa 0,0 mm 6,1 km/h (2 Bft) S-SO 202 0 min 0 W/m 3,2 C 3,6 C 8,6 km/h (2 Bft)
15/12/2011 06:40 4,9 C 89 % 1012,8 hPa 0,0 mm 9,7 km/h (2 Bft) S-SO 202 0 min 0 W/m 3,2 C 2,6 C 19,1 km/h (3 Bft)
15/12/2011 06:45 4,9 C 89 % 1012,8 hPa 0,0 mm 4,0 km/h (1 Bft) O-SO 247 0 min 0 W/m 3,2 C 4,9 C 7,2 km/h (2 Bft)
15/12/2011 06:50 4,9 C 90 % 1012,8 hPa 0,0 mm 12,2 km/h (2 Bft) S-SO 202 0 min 0 W/m 3,4 C 2,1 C 12,2 km/h (2 Bft)
15/12/2011 06:55 4,9 C 90 % 1013,0 hPa 0,0 mm 7,9 km/h (2 Bft) SO 225 0 min 0 W/m 3,4 C 3,0 C 10,4 km/h (2 Bft)
15/12/2011 07:00 4,8 C 90 % 1013,1 hPa 0,0 mm 6,5 km/h (2 Bft) S-SO 202 0 min 0 W/m 3,3 C 3,3 C 8,3 km/h (2 Bft)
15/12/2011 07:05 4,8 C 90 % 1013,1 hPa 0,0 mm 4,3 km/h (1 Bft) SO 225 0 min 0 W/m 3,3 C 4,8 C 7,9 km/h (2 Bft)
15/12/2011 07:10 4,8 C 91 % 1013,0 hPa 0,0 mm 4,3 km/h (1 Bft) SO 225 0 min 0 W/m 3,5 C 4,8 C 6,5 km/h (2 Bft)
15/12/2011 07:15 4,8 C 91 % 1013,0 hPa 0,0 mm 9,4 km/h (2 Bft) S-SO 202 0 min 0 W/m 3,5 C 2,6 C 13,3 km/h (3 Bft)
15/12/2011 07:20 4,8 C 91 % 1013,0 hPa 0,0 mm 9,4 km/h (2 Bft) S-SO 202 0 min 0 W/m 3,5 C 2,6 C 11,9 km/h (2 Bft)
15/12/2011 07:25 4,8 C 92 % 1013,1 hPa 0,0 mm 6,1 km/h (2 Bft) S-SO 202 0 min 0 W/m 3,6 C 3,5 C 12,6 km/h (3 Bft)
15/12/2011 07:30 4,8 C 92 % 1013,1 hPa 0,0 mm 6,5 km/h (2 Bft) SO 225 0 min 0 W/m 3,6 C 3,3 C 10,1 km/h (2 Bft)
15/12/2011 07:35 4,8 C 92 % 1013,4 hPa 0,0 mm 6,8 km/h (2 Bft) SO 225 0 min 0 W/m 3,6 C 3,2 C 9,0 km/h (2 Bft)
15/12/2011 07:40 4,9 C 93 % 1013,3 hPa 0,1 mm 13,0 km/h (3 Bft) O-SO 247 0 min 0 W/m 3,9 C 2,0 C 18,7 km/h (3 Bft)
15/12/2011 07:45 5,1 C 93 % 1013,4 hPa 0,0 mm 8,3 km/h (2 Bft) O 270 0 min 0 W/m 4,1 C 3,2 C 12,2 km/h (2 Bft)
15/12/2011 07:50 5,3 C 93 % 1013,8 hPa 0,1 mm 0,4 km/h (0 Bft) O 270 0 min 0 W/m 4,3 C 5,3 C 3,6 km/h (1 Bft)
15/12/2011 07:55 5,3 C 93 % 1014,3 hPa 0,2 mm 0,4 km/h (0 Bft) O 270 0 min 0 W/m 4,3 C 5,3 C 0,4 km/h (0 Bft)
15/12/2011 08:00 5,4 C 93 % 1014,3 hPa 0,2 mm 1,1 km/h (1 Bft) O-SO 247 0 min 0 W/m 4,4 C 5,4 C 1,1 km/h (1 Bft)
15/12/2011 08:05 5,4 C 93 % 1014,2 hPa 0,1 mm 1,4 km/h (1 Bft) O-SO 247 0 min 0 W/m 4,4 C 5,4 C 1,4 km/h (1 Bft)
15/12/2011 08:10 5,4 C 93 % 1014,2 hPa 0,0 mm 0,0 km/h (0 Bft) S 180 0 min 0 W/m 4,4 C 5,4 C 1,4 km/h (1 Bft)
15/12/2011 08:15 5,4 C 93 % 1014,1 hPa 0,0 mm 2,5 km/h (1 Bft) O-SO 247 0 min 0 W/m 4,4 C 5,4 C 2,5 km/h (1 Bft)
15/12/2011 08:20 5,5 C 93 % 1014,2 hPa 0,0 mm 5,0 km/h (1 Bft) S-SO 202 0 min 0 W/m 4,5 C 4,7 C 10,8 km/h (2 Bft)
15/12/2011 08:25 5,6 C 93 % 1014,0 hPa 0,0 mm 5,4 km/h (2 Bft) S-SO 202 0 min 0 W/m 4,6 C 4,6 C 8,3 km/h (2 Bft)
15/12/2011 08:30 5,6 C 93 % 1014,0 hPa 0,0 mm 5,4 km/h (2 Bft) SO 225 0 min 0 W/m 4,6 C 4,6 C 10,1 km/h (2 Bft)
15/12/2011 08:35 5,6 C 93 % 1014,0 hPa 0,0 mm 10,1 km/h (2 Bft) S-SO 202 0 min 0 W/m 4,6 C 3,4 C 12,6 km/h (3 Bft)
15/12/2011 08:40 5,6 C 93 % 1014,1 hPa 0,0 mm 11,9 km/h (2 Bft) S-SO 202 0 min 0 W/m 4,6 C 3,0 C 17,3 km/h (3 Bft)
15/12/2011 08:45 5,6 C 93 % 1014,1 hPa 0,0 mm 10,1 km/h (2 Bft) S 180 0 min 0 W/m 4,6 C 3,4 C 11,2 km/h (2 Bft)
15/12/2011 08:50 5,7 C 93 % 1014,1 hPa 0,0 mm 5,8 km/h (2 Bft) SO 225 0 min 0 W/m 4,7 C 4,6 C 7,9 km/h (2 Bft)
15/12/2011 08:55 5,7 C 93 % 1014,2 hPa 0,0 mm 9,4 km/h (2 Bft) S-SO 202 0 min 0 W/m 4,7 C 3,6 C 15,1 km/h (3 Bft)
15/12/2011 09:00 5,8 C 93 % 1014,3 hPa 0,0 mm 9,0 km/h (2 Bft) SO 225 0 min 0 W/m 4,8 C 3,8 C 14,0 km/h (3 Bft)
15/12/2011 09:05 5,8 C 93 % 1014,4 hPa 0,0 mm 3,2 km/h (1 Bft) SO 225 0 min 0 W/m 4,8 C 5,8 C 4,3 km/h (1 Bft)
15/12/2011 09:10 5,8 C 93 % 1014,4 hPa 0,0 mm 8,6 km/h (2 Bft) S-SO 202 0 min 0 W/m 4,8 C 3,9 C 12,2 km/h (2 Bft)
15/12/2011 09:15 5,8 C 93 % 1014,4 hPa 0,0 mm 10,1 km/h (2 Bft) SO 225 0 min 0 W/m 4,8 C 3,6 C 14,4 km/h (3 Bft)
15/12/2011 09:20 5,8 C 93 % 1014,3 hPa 0,0 mm 10,4 km/h (2 Bft) SO 225 0 min 0 W/m 4,8 C 3,5 C 12,2 km/h (2 Bft)
15/12/2011 09:25 5,8 C 93 % 1014,1 hPa 0,0 mm 9,4 km/h (2 Bft) O-SO 247 0 min 0 W/m 4,8 C 3,7 C 11,9 km/h (2 Bft)
15/12/2011 09:30 5,8 C 93 % 1014,2 hPa 0,0 mm 9,4 km/h (2 Bft) SO 225 0 min 0 W/m 4,8 C 3,7 C 11,9 km/h (2 Bft)
15/12/2011 09:35 5,9 C 92 % 1014,3 hPa 0,0 mm 11,2 km/h (2 Bft) SO 225 0 min 0 W/m 4,7 C 3,5 C 17,6 km/h (3 Bft)
15/12/2011 09:40 6,1 C 92 % 1014,3 hPa 0,0 mm 13,7 km/h (3 Bft) O-SO 247 0 min 0 W/m 4,9 C 3,3 C 21,2 km/h (4 Bft)
15/12/2011 09:45 6,2 C 92 % 1014,5 hPa 0,0 mm 8,3 km/h (2 Bft) S-SO 202 0 min 0 W/m 5,0 C 4,5 C 15,1 km/h (3 Bft)
15/12/2011 09:50 6,3 C 91 % 1014,8 hPa 0,0 mm 6,8 km/h (2 Bft) SO 225 0 min 0 W/m 4,9 C 5,0 C 13,0 km/h (3 Bft)
15/12/2011 09:55 6,4 C 91 % 1014,7 hPa 0,0 mm 9,0 km/h (2 Bft) SO 225 0 min 0 W/m 5,0 C 4,5 C 9,0 km/h (2 Bft)
15/12/2011 10:00 6,5 C 90 % 1014,8 hPa 0,0 mm 9,4 km/h (2 Bft) O-SO 247 0 min 0 W/m 5,0 C 4,6 C 13,3 km/h (3 Bft)
15/12/2011 10:05 6,6 C 89 % 1014,8 hPa 0,0 mm 6,5 km/h (2 Bft) O-SO 247 0 min 0 W/m 4,9 C 5,4 C 11,5 km/h (2 Bft)
15/12/2011 10:10 6,6 C 89 % 1014,8 hPa 0,0 mm 11,2 km/h (2 Bft) O-SO 247 0 min 0 W/m 4,9 C 4,3 C 21,2 km/h (4 Bft)
15/12/2011 10:15 6,6 C 89 % 1014,8 hPa 0,0 mm 12,6 km/h (3 Bft) SO 225 0 min 0 W/m 4,9 C 4,1 C 19,4 km/h (3 Bft)
15/12/2011 10:20 6,8 C 89 % 1014,8 hPa 0,0 mm 8,3 km/h (2 Bft) O-SO 247 0 min 0 W/m 5,1 C 5,2 C 8,3 km/h (2 Bft)
15/12/2011 10:25 6,8 C 89 % 1014,8 hPa 0,0 mm 12,6 km/h (3 Bft) SO 225 0 min 0 W/m 5,1 C 4,3 C 16,2 km/h (3 Bft)
15/12/2011 10:30 6,8 C 90 % 1014,9 hPa 0,0 mm 10,8 km/h (2 Bft) SO 225 0 min 0 W/m 5,3 C 4,7 C 17,3 km/h (3 Bft)
15/12/2011 10:35 6,9 C 90 % 1015,0 hPa 0,0 mm 12,6 km/h (3 Bft) SO 225 0 min 0 W/m 5,4 C 4,5 C 15,8 km/h (3 Bft)
15/12/2011 10:40 6,9 C 90 % 1015,2 hPa 0,0 mm 9,4 km/h (2 Bft) SO 225 0 min 0 W/m 5,4 C 5,1 C 9,4 km/h (2 Bft)
15/12/2011 10:45 6,9 C 90 % 1015,2 hPa 0,0 mm 10,1 km/h (2 Bft) SO 225 0 min 0 W/m 5,4 C 4,9 C 10,1 km/h (2 Bft)
15/12/2011 10:50 7,1 C 90 % 1015,3 hPa 0,0 mm 9,7 km/h (2 Bft) S 180 0 min 0 W/m 5,6 C 5,2 C 15,8 km/h (3 Bft)
15/12/2011 10:55 7,3 C 90 % 1015,1 hPa 0,0 mm 10,1 km/h (2 Bft) SO 225 0 min 0 W/m 5,8 C 5,4 C 12,2 km/h (2 Bft)
15/12/2011 11:00 7,5 C 89 % 1015,3 hPa 0,0 mm 15,1 km/h (3 Bft) O-SO 247 0 min 0 W/m 5,8 C 4,8 C 20,2 km/h (4 Bft)
15/12/2011 11:05 7,6 C 89 % 1015,3 hPa 0,0 mm 7,9 km/h (2 Bft) SO 225 0 min 0 W/m 5,9 C 6,2 C 11,9 km/h (2 Bft)
15/12/2011 11:10 7,6 C 89 % 1015,5 hPa 0,0 mm 13,3 km/h (3 Bft) SO 225 0 min 0 W/m 5,9 C 5,2 C 16,6 km/h (3 Bft)
15/12/2011 11:15 7,7 C 89 % 1015,6 hPa 0,0 mm 9,4 km/h (2 Bft) SO 225 0 min 0 W/m 6,0 C 6,0 C 13,0 km/h (3 Bft)
15/12/2011 11:20 7,8 C 89 % 1015,7 hPa 0,0 mm 10,1 km/h (2 Bft) O-SO 247 0 min 0 W/m 6,1 C 6,0 C 15,1 km/h (3 Bft)
15/12/2011 11:25 7,8 C 88 % 1015,6 hPa 0,0 mm 12,6 km/h (3 Bft) SO 225 0 min 0 W/m 5,9 C 5,6 C 20,2 km/h (4 Bft)
15/12/2011 11:30 7,9 C 88 % 1015,7 hPa 0,0 mm 11,5 km/h (2 Bft) SO 225 0 min 0 W/m 6,0 C 5,9 C 13,0 km/h (3 Bft)
15/12/2011 11:35 8,1 C 87 % 1015,6 hPa 0,0 mm 14,8 km/h (3 Bft) S-SO 202 0 min 0 W/m 6,1 C 5,6 C 20,9 km/h (4 Bft)
15/12/2011 11:40 8,2 C 87 % 1015,5 hPa 0,0 mm 14,0 km/h (3 Bft) O-SO 247 0 min 0 W/m 6,2 C 5,8 C 19,4 km/h (3 Bft)
15/12/2011 11:45 8,3 C 87 % 1015,5 hPa 0,0 mm 13,3 km/h (3 Bft) O-SO 247 0 min 0 W/m 6,3 C 6,1 C 21,2 km/h (4 Bft)
15/12/2011 11:50 8,4 C 86 % 1015,5 hPa 0,0 mm 14,4 km/h (3 Bft) SO 225 0 min 0 W/m 6,2 C 6,0 C 25,2 km/h (4 Bft)
15/12/2011 11:55 8,4 C 86 % 1015,5 hPa 0,0 mm 4,7 km/h (1 Bft) SO 225 0 min 0 W/m 6,2 C 8,0 C 8,3 km/h (2 Bft)
15/12/2011 12:00 8,3 C 86 % 1015,4 hPa 0,0 mm 8,6 km/h (2 Bft) SO 225 0 min 0 W/m 6,1 C 6,9 C 10,1 km/h (2 Bft)
15/12/2011 12:05 8,3 C 87 % 1015,4 hPa 0,0 mm 9,4 km/h (2 Bft) S-SO 202 0 min 0 W/m 6,3 C 6,7 C 15,5 km/h (3 Bft)
15/12/2011 12:10 8,3 C 87 % 1015,3 hPa 0,0 mm 7,6 km/h (2 Bft) O-SO 247 0 min 0 W/m 6,3 C 7,1 C 7,9 km/h (2 Bft)
15/12/2011 12:15 8,4 C 87 % 1015,3 hPa 0,0 mm 9,0 km/h (2 Bft) SO 225 0 min 0 W/m 6,4 C 6,9 C 9,0 km/h (2 Bft)
15/12/2011 12:20 8,4 C 87 % 1015,3 hPa 0,0 mm 14,8 km/h (3 Bft) S-SO 202 0 min 0 W/m 6,4 C 6,0 C 22,3 km/h (4 Bft)
15/12/2011 12:25 8,3 C 87 % 1015,4 hPa 0,0 mm 10,8 km/h (2 Bft) S-SO 202 0 min 0 W/m 6,3 C 6,5 C 10,8 km/h (2 Bft)
15/12/2011 12:30 8,4 C 87 % 1015,3 hPa 0,0 mm 8,3 km/h (2 Bft) SO 225 0 min 0 W/m 6,4 C 7,1 C 9,7 km/h (2 Bft)
15/12/2011 12:35 8,4 C 87 % 1015,3 hPa 0,0 mm 14,0 km/h (3 Bft) O-SO 247 0 min 0 W/m 6,4 C 6,1 C 21,2 km/h (4 Bft)
15/12/2011 12:40 8,4 C 87 % 1015,3 hPa 0,0 mm 9,0 km/h (2 Bft) S-SO 202 0 min 0 W/m 6,4 C 6,9 C 16,2 km/h (3 Bft)
15/12/2011 12:45 8,5 C 87 % 1015,3 hPa 0,0 mm 11,2 km/h (2 Bft) SO 225 0 min 0 W/m 6,5 C 6,6 C 14,0 km/h (3 Bft)
15/12/2011 12:50 8,5 C 87 % 1015,3 hPa 0,0 mm 11,5 km/h (2 Bft) S-SO 202 0 min 0 W/m 6,5 C 6,6 C 14,0 km/h (3 Bft)
15/12/2011 12:55 8,5 C 87 % 1015,2 hPa 0,0 mm 10,8 km/h (2 Bft) O-SO 247 0 min 0 W/m 6,5 C 6,7 C 14,0 km/h (3 Bft)
15/12/2011 13:00 8,5 C 87 % 1015,4 hPa 0,0 mm 10,4 km/h (2 Bft) O-SO 247 0 min 0 W/m 6,5 C 6,8 C 16,2 km/h (3 Bft)
15/12/2011 13:05 8,6 C 87 % 1015,5 hPa 0,0 mm 10,1 km/h (2 Bft) SO 225 0 min 0 W/m 6,6 C 6,9 C 15,8 km/h (3 Bft)
15/12/2011 13:10 8,6 C 87 % 1015,3 hPa 0,0 mm 7,2 km/h (2 Bft) SO 225 0 min 0 W/m 6,6 C 7,5 C 7,2 km/h (2 Bft)
15/12/2011 13:15 8,6 C 87 % 1015,4 hPa 0,0 mm 8,3 km/h (2 Bft) SO 225 0 min 0 W/m 6,6 C 7,3 C 16,6 km/h (3 Bft)
15/12/2011 13:20 8,8 C 87 % 1015,2 hPa 0,0 mm 8,6 km/h (2 Bft) SO 225 0 min 0 W/m 6,8 C 7,5 C 8,6 km/h (2 Bft)
15/12/2011 13:25 8,9 C 87 % 1015,2 hPa 0,0 mm 7,9 km/h (2 Bft) SO 225 0 min 0 W/m 6,9 C 7,7 C 10,1 km/h (2 Bft)
15/12/2011 13:30 8,9 C 87 % 1015,2 hPa 0,0 mm 8,6 km/h (2 Bft) O-SO 247 0 min 0 W/m 6,9 C 7,6 C 11,2 km/h (2 Bft)
15/12/2011 13:35 9,1 C 86 % 1015,2 hPa 0,0 mm 10,1 km/h (2 Bft) S-SO 202 0 min 0 W/m 6,9 C 7,5 C 10,1 km/h (2 Bft)
15/12/2011 13:40 9,1 C 86 % 1015,1 hPa 0,0 mm 7,6 km/h (2 Bft) SO 225 0 min 0 W/m 6,9 C 8,0 C 13,3 km/h (3 Bft)
15/12/2011 13:45 9,2 C 86 % 1015,0 hPa 0,0 mm 13,7 km/h (3 Bft) SO 225 0 min 0 W/m 7,0 C 7,1 C 17,6 km/h (3 Bft)
15/12/2011 13:50 9,2 C 86 % 1014,8 hPa 0,0 mm 9,7 km/h (2 Bft) SO 225 0 min 0 W/m 7,0 C 7,7 C 16,9 km/h (3 Bft)
15/12/2011 13:55 9,2 C 85 % 1015,0 hPa 0,0 mm 5,4 km/h (2 Bft) O 270 0 min 0 W/m 6,8 C 8,7 C 6,5 km/h (2 Bft)
15/12/2011 14:00 9,2 C 85 % 1015,0 hPa 0,0 mm 10,4 km/h (2 Bft) S 180 0 min 0 W/m 6,8 C 7,6 C 18,0 km/h (3 Bft)
15/12/2011 14:05 9,1 C 85 % 1015,0 hPa 0,0 mm 6,8 km/h (2 Bft) O-SO 247 0 min 0 W/m 6,7 C 8,2 C 9,7 km/h (2 Bft)
15/12/2011 14:10 9,1 C 85 % 1015,0 hPa 0,0 mm 5,0 km/h (1 Bft) SO 225 0 min 0 W/m 6,7 C 8,7 C 5,0 km/h (1 Bft)
15/12/2011 14:15 9,1 C 85 % 1014,9 hPa 0,0 mm 3,6 km/h (1 Bft) SO 225 0 min 0 W/m 6,7 C 9,1 C 9,0 km/h (2 Bft)
15/12/2011 14:20 9,1 C 85 % 1014,8 hPa 0,0 mm 4,3 km/h (1 Bft) O-SO 247 0 min 0 W/m 6,7 C 9,1 C 9,7 km/h (2 Bft)
15/12/2011 14:25 9,0 C 85 % 1014,8 hPa 0,0 mm 8,3 km/h (2 Bft) S-SO 202 0 min 0 W/m 6,6 C 7,8 C 8,3 km/h (2 Bft)
15/12/2011 14:30 8,9 C 86 % 1014,7 hPa 0,0 mm 12,2 km/h (2 Bft) S 180 0 min 0 W/m 6,7 C 7,0 C 12,2 km/h (2 Bft)
15/12/2011 14:35 8,9 C 86 % 1014,7 hPa 0,0 mm 5,0 km/h (1 Bft) SO 225 0 min 0 W/m 6,7 C 8,5 C 8,3 km/h (2 Bft)
15/12/2011 14:40 8,9 C 87 % 1014,7 hPa 0,1 mm 2,5 km/h (1 Bft) S-SO 202 0 min 0 W/m 6,9 C 8,9 C 3,2 km/h (1 Bft)
15/12/2011 14:45 8,8 C 88 % 1014,5 hPa 0,0 mm 4,3 km/h (1 Bft) SO 225 0 min 0 W/m 6,9 C 8,8 C 9,7 km/h (2 Bft)
15/12/2011 14:50 8,6 C 89 % 1014,4 hPa 0,1 mm 8,6 km/h (2 Bft) O-SO 247 0 min 0 W/m 6,9 C 7,2 C 12,2 km/h (2 Bft)
15/12/2011 14:55 8,6 C 90 % 1014,4 hPa 0,0 mm 6,8 km/h (2 Bft) SO 225 0 min 0 W/m 7,1 C 7,6 C 10,1 km/h (2 Bft)
15/12/2011 15:00 8,6 C 90 % 1014,4 hPa 0,0 mm 9,0 km/h (2 Bft) S-SO 202 0 min 0 W/m 7,1 C 7,2 C 9,0 km/h (2 Bft)
15/12/2011 15:05 8,6 C 90 % 1014,3 hPa 0,0 mm 8,3 km/h (2 Bft) O-SO 247 0 min 0 W/m 7,1 C 7,3 C 9,0 km/h (2 Bft)
15/12/2011 15:10 8,6 C 90 % 1014,2 hPa 0,0 mm 11,9 km/h (2 Bft) SO 225 0 min 0 W/m 7,1 C 6,6 C 16,2 km/h (3 Bft)
15/12/2011 15:15 8,7 C 91 % 1014,1 hPa 0,0 mm 11,2 km/h (2 Bft) SO 225 0 min 0 W/m 7,3 C 6,9 C 17,6 km/h (3 Bft)
15/12/2011 15:20 8,8 C 90 % 1014,1 hPa 0,0 mm 10,1 km/h (2 Bft) O-SO 247 0 min 0 W/m 7,3 C 7,2 C 13,0 km/h (3 Bft)
15/12/2011 15:25 8,8 C 90 % 1014,1 hPa 0,0 mm 7,2 km/h (2 Bft) SO 225 0 min 0 W/m 7,3 C 7,8 C 7,2 km/h (2 Bft)
15/12/2011 15:30 8,8 C 90 % 1014,0 hPa 0,0 mm 6,1 km/h (2 Bft) SO 225 0 min 0 W/m 7,3 C 8,1 C 7,2 km/h (2 Bft)
15/12/2011 15:35 8,9 C 89 % 1014,0 hPa 0,0 mm 6,8 km/h (2 Bft) O-SO 247 0 min 0 W/m 7,2 C 8,0 C 9,0 km/h (2 Bft)
15/12/2011 15:40 8,9 C 89 % 1014,1 hPa 0,1 mm 8,3 km/h (2 Bft) SO 225 0 min 0 W/m 7,2 C 7,7 C 10,8 km/h (2 Bft)
15/12/2011 15:45 8,8 C 89 % 1014,1 hPa 0,0 mm 8,3 km/h (2 Bft) SO 225 0 min 0 W/m 7,1 C 7,5 C 14,4 km/h (3 Bft)
15/12/2011 15:50 8,8 C 90 % 1014,2 hPa 0,1 mm 10,1 km/h (2 Bft) SO 225 0 min 0 W/m 7,3 C 7,2 C 10,1 km/h (2 Bft)
15/12/2011 15:55 8,8 C 90 % 1014,2 hPa 0,1 mm 9,0 km/h (2 Bft) O-SO 247 0 min 0 W/m 7,3 C 7,4 C 16,2 km/h (3 Bft)
15/12/2011 16:00 8,7 C 90 % 1014,2 hPa 0,0 mm 6,1 km/h (2 Bft) SO 225 0 min 0 W/m 7,2 C 7,9 C 10,8 km/h (2 Bft)
15/12/2011 16:05 8,6 C 91 % 1014,3 hPa 0,0 mm 8,3 km/h (2 Bft) S-SO 202 0 min 0 W/m 7,2 C 7,3 C 13,3 km/h (3 Bft)
15/12/2011 16:10 8,6 C 91 % 1014,3 hPa 0,0 mm 9,4 km/h (2 Bft) SO 225 0 min 0 W/m 7,2 C 7,1 C 11,2 km/h (2 Bft)
15/12/2011 16:15 8,5 C 91 % 1014,4 hPa 0,0 mm 7,2 km/h (2 Bft) SO 225 0 min 0 W/m 7,1 C 7,4 C 12,2 km/h (2 Bft)
15/12/2011 16:20 8,4 C 91 % 1014,3 hPa 0,0 mm 10,1 km/h (2 Bft) SO 225 0 min 0 W/m 7,0 C 6,7 C 15,5 km/h (3 Bft)
15/12/2011 16:25 8,4 C 91 % 1014,1 hPa 0,0 mm 11,9 km/h (2 Bft) S-SO 202 0 min 0 W/m 7,0 C 6,4 C 14,0 km/h (3 Bft)
15/12/2011 16:30 8,4 C 91 % 1014,0 hPa 0,0 mm 9,0 km/h (2 Bft) S-SO 202 0 min 0 W/m 7,0 C 6,9 C 12,6 km/h (3 Bft)
15/12/2011 16:35 8,4 C 91 % 1014,0 hPa 0,1 mm 11,9 km/h (2 Bft) S-SO 202 0 min 0 W/m 7,0 C 6,4 C 19,1 km/h (3 Bft)
15/12/2011 16:40 8,4 C 91 % 1013,9 hPa 0,0 mm 14,0 km/h (3 Bft) SO 225 0 min 0 W/m 7,0 C 6,1 C 24,1 km/h (4 Bft)
15/12/2011 16:45 8,4 C 91 % 1013,8 hPa 0,0 mm 12,6 km/h (3 Bft) S-SO 202 0 min 0 W/m 7,0 C 6,3 C 16,6 km/h (3 Bft)
15/12/2011 16:50 8,4 C 91 % 1013,7 hPa 0,0 mm 8,6 km/h (2 Bft) O-SO 247 0 min 0 W/m 7,0 C 7,0 C 9,4 km/h (2 Bft)
15/12/2011 16:55 8,4 C 91 % 1013,6 hPa 0,0 mm 11,5 km/h (2 Bft) SO 225 0 min 0 W/m 7,0 C 6,5 C 12,6 km/h (3 Bft)
15/12/2011 17:00 8,4 C 91 % 1013,5 hPa 0,0 mm 15,1 km/h (3 Bft) S-SO 202 0 min 0 W/m 7,0 C 5,9 C 20,2 km/h (4 Bft)
15/12/2011 17:05 8,4 C 91 % 1013,4 hPa 0,0 mm 10,8 km/h (2 Bft) S-SO 202 0 min 0 W/m 7,0 C 6,6 C 17,3 km/h (3 Bft)
15/12/2011 17:10 8,3 C 91 % 1013,4 hPa 0,0 mm 13,7 km/h (3 Bft) SO 225 0 min 0 W/m 6,9 C 6,0 C 17,6 km/h (3 Bft)
15/12/2011 17:15 8,3 C 91 % 1013,2 hPa 0,0 mm 12,6 km/h (3 Bft) SO 225 0 min 0 W/m 6,9 C 6,2 C 12,6 km/h (3 Bft)
15/12/2011 17:20 8,3 C 91 % 1013,3 hPa 0,0 mm 12,6 km/h (3 Bft) S-SO 202 0 min 0 W/m 6,9 C 6,2 C 21,6 km/h (4 Bft)
15/12/2011 17:25 8,3 C 91 % 1013,3 hPa 0,1 mm 12,2 km/h (2 Bft) SO 225 0 min 0 W/m 6,9 C 6,2 C 14,8 km/h (3 Bft)
15/12/2011 17:30 8,3 C 92 % 1013,5 hPa 0,0 mm 11,5 km/h (2 Bft) O-SO 247 0 min 0 W/m 7,1 C 6,3 C 19,8 km/h (3 Bft)
15/12/2011 17:35 8,3 C 92 % 1013,5 hPa 0,1 mm 5,8 km/h (2 Bft) SO 225 0 min 0 W/m 7,1 C 7,6 C 16,2 km/h (3 Bft)
15/12/2011 17:40 8,3 C 92 % 1013,2 hPa 0,1 mm 22,3 km/h (4 Bft) S-SO 202 0 min 0 W/m 7,1 C 5,0 C 22,3 km/h (4 Bft)
15/12/2011 17:45 8,4 C 92 % 1013,2 hPa 0,0 mm 11,5 km/h (2 Bft) S-SE 157 0 min 0 W/m 7,2 C 6,5 C 14,0 km/h (3 Bft)
15/12/2011 17:50 8,4 C 92 % 1013,2 hPa 0,0 mm 14,8 km/h (3 Bft) O-SO 247 0 min 0 W/m 7,2 C 6,0 C 20,9 km/h (4 Bft)
15/12/2011 17:55 8,4 C 92 % 1013,2 hPa 0,0 mm 14,0 km/h (3 Bft) SO 225 0 min 0 W/m 7,2 C 6,1 C 19,8 km/h (3 Bft)
15/12/2011 18:00 8,4 C 92 % 1013,2 hPa 0,0 mm 8,6 km/h (2 Bft) S-SO 202 0 min 0 W/m 7,2 C 7,0 C 11,2 km/h (2 Bft)
15/12/2011 18:05 8,4 C 92 % 1013,1 hPa 0,0 mm 10,4 km/h (2 Bft) S 180 0 min 0 W/m 7,2 C 6,6 C 13,3 km/h (3 Bft)
15/12/2011 18:10 8,3 C 92 % 1013,0 hPa 0,0 mm 8,3 km/h (2 Bft) O-SO 247 0 min 0 W/m 7,1 C 6,9 C 8,3 km/h (2 Bft)
15/12/2011 18:15 8,3 C 93 % 1012,7 hPa 0,0 mm 4,7 km/h (1 Bft) SO 225 0 min 0 W/m 7,2 C 7,9 C 7,9 km/h (2 Bft)
15/12/2011 18:20 8,2 C 92 % 1012,8 hPa 0,0 mm 7,9 km/h (2 Bft) S-SO 202 0 min 0 W/m 7,0 C 6,9 C 7,9 km/h (2 Bft)
15/12/2011 18:25 8,2 C 92 % 1012,8 hPa 0,0 mm 10,4 km/h (2 Bft) SO 225 0 min 0 W/m 7,0 C 6,4 C 12,6 km/h (3 Bft)
15/12/2011 18:30 8,2 C 92 % 1012,6 hPa 0,0 mm 10,8 km/h (2 Bft) S-SO 202 0 min 0 W/m 7,0 C 6,3 C 15,5 km/h (3 Bft)
15/12/2011 18:35 8,2 C 93 % 1012,5 hPa 0,0 mm 9,0 km/h (2 Bft) S-SO 202 0 min 0 W/m 7,1 C 6,7 C 13,3 km/h (3 Bft)
15/12/2011 18:40 8,3 C 93 % 1012,6 hPa 0,0 mm 13,0 km/h (3 Bft) S 180 0 min 0 W/m 7,2 C 6,1 C 14,4 km/h (3 Bft)
15/12/2011 18:45 8,3 C 93 % 1012,5 hPa 0,0 mm 14,0 km/h (3 Bft) SO 225 0 min 0 W/m 7,2 C 6,0 C 22,7 km/h (4 Bft)
15/12/2011 18:50 8,4 C 93 % 1012,3 hPa 0,0 mm 9,4 km/h (2 Bft) SO 225 0 min 0 W/m 7,3 C 6,8 C 12,2 km/h (2 Bft)
15/12/2011 18:55 8,3 C 93 % 1012,3 hPa 0,1 mm 8,6 km/h (2 Bft) O-SO 247 0 min 0 W/m 7,2 C 6,9 C 8,6 km/h (2 Bft)
15/12/2011 19:00 8,3 C 93 % 1012,3 hPa 0,0 mm 11,9 km/h (2 Bft) SO 225 0 min 0 W/m 7,2 C 6,3 C 16,2 km/h (3 Bft)
15/12/2011 19:05 8,4 C 93 % 1012,3 hPa 0,0 mm 12,6 km/h (3 Bft) SO 225 0 min 0 W/m 7,3 C 6,3 C 12,6 km/h (3 Bft)
15/12/2011 19:10 8,4 C 94 % 1012,2 hPa 0,1 mm 13,0 km/h (3 Bft) S-SO 202 0 min 0 W/m 7,5 C 6,2 C 13,0 km/h (3 Bft)
15/12/2011 19:15 8,4 C 94 % 1012,2 hPa 0,1 mm 16,2 km/h (3 Bft) S-SO 202 0 min 0 W/m 7,5 C 5,8 C 16,2 km/h (3 Bft)
15/12/2011 19:20 8,5 C 94 % 1012,1 hPa 0,0 mm 11,9 km/h (2 Bft) SO 225 0 min 0 W/m 7,6 C 6,5 C 20,2 km/h (4 Bft)
15/12/2011 19:25 8,5 C 94 % 1012,1 hPa 0,1 mm 18,0 km/h (3 Bft) SO 225 0 min 0 W/m 7,6 C 5,7 C 18,0 km/h (3 Bft)
15/12/2011 19:30 8,6 C 94 % 1012,1 hPa 0,1 mm 16,2 km/h (3 Bft) SO 225 0 min 0 W/m 7,7 C 6,0 C 20,2 km/h (4 Bft)
15/12/2011 19:35 8,6 C 94 % 1012,0 hPa 0,0 mm 14,0 km/h (3 Bft) SO 225 0 min 0 W/m 7,7 C 6,3 C 14,8 km/h (3 Bft)
15/12/2011 19:40 8,6 C 94 % 1011,9 hPa 0,1 mm 7,9 km/h (2 Bft) O-SO 247 0 min 0 W/m 7,7 C 7,4 C 9,7 km/h (2 Bft)
15/12/2011 19:45 8,6 C 94 % 1011,9 hPa 0,1 mm 10,4 km/h (2 Bft) SO 225 0 min 0 W/m 7,7 C 6,9 C 10,4 km/h (2 Bft)
15/12/2011 19:50 8,6 C 94 % 1011,8 hPa 0,1 mm 8,6 km/h (2 Bft) SO 225 0 min 0 W/m 7,7 C 7,2 C 10,4 km/h (2 Bft)
15/12/2011 19:55 8,6 C 94 % 1011,7 hPa 0,0 mm 9,0 km/h (2 Bft) S-SO 202 0 min 0 W/m 7,7 C 7,2 C 16,2 km/h (3 Bft)
15/12/2011 20:00 8,6 C 94 % 1011,5 hPa 0,1 mm 11,5 km/h (2 Bft) S-SO 202 0 min 0 W/m 7,7 C 6,7 C 11,5 km/h (2 Bft)
15/12/2011 20:05 8,6 C 94 % 1011,4 hPa 0,1 mm 6,8 km/h (2 Bft) SO 225 0 min 0 W/m 7,7 C 7,6 C 7,9 km/h (2 Bft)
15/12/2011 20:10 8,6 C 94 % 1011,3 hPa 0,1 mm 7,2 km/h (2 Bft) SO 225 0 min 0 W/m 7,7 C 7,5 C 10,4 km/h (2 Bft)
15/12/2011 20:15 8,6 C 94 % 1011,2 hPa 0,1 mm 11,2 km/h (2 Bft) S-SO 202 0 min 0 W/m 7,7 C 6,7 C 20,9 km/h (4 Bft)
15/12/2011 20:20 8,6 C 94 % 1011,1 hPa 0,1 mm 9,0 km/h (2 Bft) S-SO 202 0 min 0 W/m 7,7 C 7,2 C 11,9 km/h (2 Bft)
15/12/2011 20:25 8,6 C 94 % 1011,1 hPa 0,1 mm 4,7 km/h (1 Bft) SO 225 0 min 0 W/m 7,7 C 8,3 C 8,6 km/h (2 Bft)
15/12/2011 20:30 8,6 C 94 % 1011,0 hPa 0,2 mm 9,7 km/h (2 Bft) O-SO 247 0 min 0 W/m 7,7 C 7,0 C 11,9 km/h (2 Bft)
15/12/2011 20:35 8,7 C 94 % 1010,8 hPa 0,0 mm 8,3 km/h (2 Bft) SO 225 0 min 0 W/m 7,8 C 7,4 C 12,6 km/h (3 Bft)
15/12/2011 20:40 8,8 C 94 % 1010,6 hPa 0,1 mm 9,4 km/h (2 Bft) SO 225 0 min 0 W/m 7,9 C 7,3 C 14,8 km/h (3 Bft)
15/12/2011 20:45 8,8 C 94 % 1010,5 hPa 0,1 mm 9,4 km/h (2 Bft) O-SO 247 0 min 0 W/m 7,9 C 7,3 C 10,8 km/h (2 Bft)
15/12/2011 20:50 8,8 C 94 % 1010,4 hPa 0,1 mm 18,4 km/h (3 Bft) S-SO 202 0 min 0 W/m 7,9 C 6,0 C 26,3 km/h (4 Bft)
15/12/2011 20:55 8,9 C 94 % 1010,2 hPa 0,0 mm 9,0 km/h (2 Bft) SO 225 0 min 0 W/m 8,0 C 7,5 C 11,9 km/h (2 Bft)
15/12/2011 21:00 9,0 C 94 % 1010,3 hPa 0,1 mm 13,7 km/h (3 Bft) SO 225 0 min 0 W/m 8,1 C 6,9 C 15,5 km/h (3 Bft)
15/12/2011 21:05 9,1 C 94 % 1010,0 hPa 0,1 mm 9,4 km/h (2 Bft) O-SO 247 0 min 0 W/m 8,2 C 7,7 C 9,4 km/h (2 Bft)
15/12/2011 21:10 9,1 C 94 % 1009,7 hPa 0,1 mm 16,6 km/h (3 Bft) O-SO 247 0 min 0 W/m 8,2 C 6,6 C 24,8 km/h (4 Bft)
15/12/2011 21:15 9,1 C 94 % 1009,6 hPa 0,0 mm 14,8 km/h (3 Bft) S-SO 202 0 min 0 W/m 8,2 C 6,8 C 21,6 km/h (4 Bft)
15/12/2011 21:20 9,1 C 94 % 1009,4 hPa 0,1 mm 15,1 km/h (3 Bft) SO 225 0 min 0 W/m 8,2 C 6,8 C 19,4 km/h (3 Bft)
15/12/2011 21:25 9,1 C 94 % 1009,2 hPa 0,1 mm 14,0 km/h (3 Bft) S-SO 202 0 min 0 W/m 8,2 C 6,9 C 16,6 km/h (3 Bft)
15/12/2011 21:30 9,1 C 94 % 1009,5 hPa 0,3 mm 12,2 km/h (2 Bft) SO 225 0 min 0 W/m 8,2 C 7,2 C 24,8 km/h (4 Bft)
15/12/2011 21:35 9,2 C 94 % 1009,3 hPa 0,2 mm 7,6 km/h (2 Bft) O-SO 247 0 min 0 W/m 8,3 C 8,2 C 14,8 km/h (3 Bft)
15/12/2011 21:40 9,2 C 94 % 1009,0 hPa 0,1 mm 8,3 km/h (2 Bft) SO 225 0 min 0 W/m 8,3 C 8,0 C 10,4 km/h (2 Bft)
15/12/2011 21:45 9,2 C 94 % 1008,9 hPa 0,1 mm 17,6 km/h (3 Bft) SO 225 0 min 0 W/m 8,3 C 6,6 C 22,7 km/h (4 Bft)
15/12/2011 21:50 9,3 C 94 % 1008,6 hPa 0,1 mm 10,4 km/h (2 Bft) SO 225 0 min 0 W/m 8,4 C 7,7 C 15,5 km/h (3 Bft)
15/12/2011 21:55 9,3 C 94 % 1008,5 hPa 0,1 mm 11,5 km/h (2 Bft) O-SO 247 0 min 0 W/m 8,4 C 7,5 C 13,7 km/h (3 Bft)
15/12/2011 22:00 9,4 C 94 % 1008,2 hPa 0,1 mm 19,4 km/h (3 Bft) O-SO 247 0 min 0 W/m 8,5 C 6,7 C 33,5 km/h (5 Bft)
15/12/2011 22:05 9,5 C 94 % 1008,2 hPa 0,2 mm 18,4 km/h (3 Bft) SO 225 0 min 0 W/m 8,6 C 6,9 C 28,8 km/h (5 Bft)
15/12/2011 22:10 9,6 C 94 % 1008,2 hPa 0,1 mm 14,0 km/h (3 Bft) SO 225 0 min 0 W/m 8,7 C 7,5 C 19,1 km/h (3 Bft)
15/12/2011 22:15 9,6 C 94 % 1008,0 hPa 0,1 mm 16,6 km/h (3 Bft) O-SO 247 0 min 0 W/m 8,7 C 7,2 C 23,4 km/h (4 Bft)
15/12/2011 22:20 9,6 C 94 % 1008,0 hPa 0,2 mm 17,3 km/h (3 Bft) SO 225 0 min 0 W/m 8,7 C 7,2 C 17,3 km/h (3 Bft)
15/12/2011 22:25 9,6 C 94 % 1007,9 hPa 0,1 mm 13,7 km/h (3 Bft) S-SO 202 0 min 0 W/m 8,7 C 7,6 C 18,0 km/h (3 Bft)
15/12/2011 22:30 9,6 C 94 % 1007,9 hPa 0,1 mm 16,2 km/h (3 Bft) S-SO 202 0 min 0 W/m 8,7 C 7,3 C 16,9 km/h (3 Bft)
15/12/2011 22:35 9,7 C 94 % 1007,9 hPa 0,1 mm 15,1 km/h (3 Bft) S-SO 202 0 min 0 W/m 8,8 C 7,5 C 21,6 km/h (4 Bft)
15/12/2011 22:40 9,7 C 94 % 1007,7 hPa 0,1 mm 18,7 km/h (3 Bft) S 180 0 min 0 W/m 8,8 C 7,1 C 27,0 km/h (5 Bft)
15/12/2011 22:45 9,8 C 94 % 1007,6 hPa 0,0 mm 22,0 km/h (4 Bft) SO 225 0 min 0 W/m 8,9 C 6,9 C 25,2 km/h (4 Bft)
15/12/2011 22:50 9,8 C 94 % 1007,5 hPa 0,1 mm 23,4 km/h (4 Bft) SO 225 0 min 0 W/m 8,9 C 6,8 C 26,3 km/h (4 Bft)
15/12/2011 22:55 9,8 C 94 % 1007,2 hPa 0,0 mm 12,6 km/h (3 Bft) S-SO 202 0 min 0 W/m 8,9 C 8,0 C 19,1 km/h (3 Bft)
15/12/2011 23:00 9,8 C 93 % 1007,2 hPa 0,0 mm 13,7 km/h (3 Bft) SO 225 0 min 0 W/m 8,7 C 7,8 C 18,7 km/h (3 Bft)
15/12/2011 23:05 9,8 C 93 % 1006,8 hPa 0,1 mm 14,0 km/h (3 Bft) S-SO 202 0 min 0 W/m 8,7 C 7,8 C 22,7 km/h (4 Bft)
15/12/2011 23:10 9,8 C 93 % 1006,9 hPa 0,0 mm 13,7 km/h (3 Bft) S-SO 202 0 min 0 W/m 8,7 C 7,8 C 17,6 km/h (3 Bft)
15/12/2011 23:15 9,8 C 93 % 1006,6 hPa 0,1 mm 19,1 km/h (3 Bft) S-SO 202 0 min 0 W/m 8,7 C 7,2 C 30,2 km/h (5 Bft)
15/12/2011 23:20 9,8 C 93 % 1006,5 hPa 0,0 mm 21,2 km/h (4 Bft) S-SO 202 0 min 0 W/m 8,7 C 7,0 C 28,4 km/h (5 Bft)
15/12/2011 23:25 9,7 C 93 % 1006,4 hPa 0,1 mm 13,7 km/h (3 Bft) S-SO 202 0 min 0 W/m 8,6 C 7,7 C 20,2 km/h (4 Bft)
15/12/2011 23:30 9,7 C 93 % 1006,1 hPa 0,0 mm 15,8 km/h (3 Bft) SO 225 0 min 0 W/m 8,6 C 7,4 C 18,0 km/h (3 Bft)
15/12/2011 23:35 9,7 C 92 % 1006,3 hPa 0,0 mm 16,2 km/h (3 Bft) SO 225 0 min 0 W/m 8,5 C 7,4 C 18,4 km/h (3 Bft)
15/12/2011 23:40 9,7 C 92 % 1006,2 hPa 0,0 mm 17,3 km/h (3 Bft) S-SO 202 0 min 0 W/m 8,5 C 7,3 C 26,3 km/h (4 Bft)
15/12/2011 23:45 9,6 C 92 % 1006,1 hPa 0,1 mm 21,6 km/h (4 Bft) S-SO 202 0 min 0 W/m 8,4 C 6,7 C 27,7 km/h (5 Bft)
15/12/2011 23:50 9,6 C 92 % 1006,2 hPa 0,1 mm 22,0 km/h (4 Bft) S-SO 202 0 min 0 W/m 8,4 C 6,7 C 28,1 km/h (5 Bft)
15/12/2011 23:55 9,5 C 92 % 1006,0 hPa 0,1 mm 22,7 km/h (4 Bft) S-SO 202 0 min 0 W/m 8,3 C 6,5 C 35,3 km/h (5 Bft)
_ Min-Heure 07:35 14:25 23:55 - 08:10 - - - - 06:45 07:40 07:55
Minimum _ 4,8 C 85 % 1006,0 hPa - 0,0 km/h (0 Bft) - - - - 3,2 C 2,0 C 0,4 km/h (0 Bft)
_ Max-Heure 23:20 22:55 11:30 21:30 22:50 - - 23:55 23:55 22:55 14:20 23:55
Maximum _ 9,8 C 94 % 1015,7 hPa 0,3 mm 23,4 km/h
SO (4 Bft)
- - 0 min 0 W/m 8,9 C 9,1 C 35,3 km/h
S-SO (5 Bft)
Moyenne _ 7,5 C 91 % 1012,5 hPa #8,3 mm 10,1 km/h (2 Bft) SO - #0 min. 0 W/m 6,1 C 5,7 C 14,1 km/h (3 Bft)
Saint Bonnet de Bellac- Haute Vienne - France